| time (UTC) | temp C | wind direction | speed KPH | gust KPH | rain 1hr cm | rain 24hr cm | rain mn cm | humidity % | barometer mb |
| 20260505124649 | 12 | 180 | 1.6 | 14.5 | 0.00 | 0.00 | 0.00 | 91 | 1014.6 |
| 20260505124145 | 12 | 196 | 8.0 | 8.0 | 0.00 | 0.00 | 0.00 | 91 | 1014.5 |
| 20260505123641 | 12 | 188 | 6.4 | 9.7 | 0.00 | 0.00 | 0.00 | 91 | 1014.5 |
| 20260505123138 | 12 | 210 | 9.7 | 14.5 | 0.00 | 0.00 | 0.00 | 91 | 1014.5 |
| 20260505122634 | 12 | 218 | 8.0 | 12.9 | 0.00 | 0.00 | 0.00 | 91 | 1014.5 |
| 20260505122132 | 12 | 189 | 6.4 | 11.3 | 0.00 | 0.00 | 0.00 | 91 | 1014.4 |
| 20260505121628 | 12 | 190 | 3.2 | 9.7 | 0.00 | 0.00 | 0.00 | 91 | 1014.3 |
| 20260505121125 | 12 | 210 | 8.0 | 9.7 | 0.00 | 0.00 | 0.00 | 91 | 1014.6 |
| 20260505120621 | 12 | 191 | 8.0 | 14.5 | 0.00 | 0.00 | 0.00 | 92 | 1014.3 |
| 20260505120118 | 12 | 164 | 6.4 | 9.7 | 0.00 | 0.00 | 0.00 | 92 | 1014.4 |
| 20260505115612 | 12 | 188 | 3.2 | 9.7 | 0.00 | 0.00 | 0.00 | 92 | 1014.3 |
| 20260505115110 | 12 | 189 | 6.4 | 6.4 | 0.00 | 0.00 | 0.00 | 92 | 1014.2 |
| 20260505114606 | 12 | 180 | 6.4 | 11.3 | 0.00 | 0.00 | 0.00 | 92 | 1014.3 |
| 20260505114103 | 12 | 185 | 3.2 | 9.7 | 0.00 | 0.00 | 0.00 | 92 | 1014.2 |
| 20260505113559 | 12 | 197 | 9.7 | 11.3 | 0.00 | 0.00 | 0.00 | 92 | 1014.3 |
| 20260505113056 | 12 | 180 | 6.4 | 12.9 | 0.00 | 0.00 | 0.00 | 92 | 1014.3 |
| 20260505112552 | 12 | 201 | 16.1 | 16.1 | 0.00 | 0.00 | 0.00 | 92 | 1014.2 |
| 20260505112051 | 12 | 166 | 6.4 | 12.9 | 0.00 | 0.00 | 0.00 | 91 | 1014.3 |
| 20260505111550 | 12 | 162 | 6.4 | 9.7 | 0.00 | 0.00 | 0.00 | 91 | 1014.2 |
| 20260505111046 | 12 | 178 | 6.4 | 16.1 | 0.00 | 0.00 | 0.00 | 91 | 1014.2 |
| 20260505110543 | 12 | 166 | 3.2 | 11.3 | 0.00 | 0.00 | 0.00 | 92 | 1014.0 |
| 20260505102015 | 12 | 180 | 1.6 | 12.9 | 0.00 | 0.00 | 0.00 | 92 | 1013.8 |
| 20260505101514 | 12 | 167 | 4.8 | 14.5 | 0.00 | 0.00 | 0.00 | 92 | 1013.8 |
| 20260505101009 | 12 | 179 | 6.4 | 12.9 | 0.00 | 0.00 | 0.00 | 92 | 1013.6 |
| 20260505100507 | 12 | 191 | 6.4 | 14.5 | 0.00 | 0.00 | 0.00 | 92 | 1013.8 |
| 20260505100004 | 12 | 186 | 8.0 | 12.9 | 0.00 | 0.00 | 0.00 | 92 | 1013.7 |
| 20260505095500 | 12 | 179 | 9.7 | 16.1 | 0.00 | 0.00 | 0.00 | 92 | 1013.6 |
| 20260505094956 | 12 | 217 | 11.3 | 14.5 | 0.00 | 0.00 | 0.00 | 92 | 1013.5 |
| 20260505094453 | 12 | 150 | 4.8 | 16.1 | 0.00 | 0.00 | 0.00 | 92 | 1013.5 |
| 20260505093949 | 12 | 161 | 4.8 | 16.1 | 0.00 | 0.00 | 0.00 | 92 | 1013.5 |
| 20260505093446 | 12 | 192 | 9.7 | 17.7 | 0.00 | 0.00 | 0.00 | 92 | 1013.4 |
| 20260505092943 | 12 | 182 | 4.8 | 14.5 | 0.00 | 0.00 | 0.00 | 92 | 1013.5 |
| 20260505092440 | 12 | 213 | 14.5 | 17.7 | 0.00 | 0.00 | 0.00 | 92 | 1013.5 |
| 20260505091938 | 12 | 124 | 3.2 | 19.3 | 0.00 | 0.00 | 0.00 | 92 | 1013.5 |
| 20260505091436 | 12 | 163 | 6.4 | 12.9 | 0.00 | 0.00 | 0.00 | 92 | 1013.5 |
| 20260505090933 | 12 | 202 | 9.7 | 19.3 | 0.00 | 0.00 | 0.00 | 91 | 1013.3 |
| 20260505090431 | 12 | 198 | 12.9 | 12.9 | 0.00 | 0.00 | 0.00 | 91 | 1013.3 |
| 20260505085928 | 12 | 132 | 3.2 | 16.1 | 0.00 | 0.00 | 0.00 | 91 | 1013.2 |
| 20260505085426 | 12 | 180 | 3.2 | 17.7 | 0.00 | 0.00 | 0.00 | 91 | 1013.2 |
| 20260505084924 | 12 | 180 | 8.0 | 9.7 | 0.00 | 0.00 | 0.00 | 91 | 1013.1 |
| 20260505084422 | 12 | 159 | 3.2 | 11.3 | 0.00 | 0.00 | 0.00 | 91 | 1013.1 |
| 20260505083920 | 12 | 127 | 3.2 | 11.3 | 0.00 | 0.00 | 0.00 | 91 | 1013.1 |
| 20260505083417 | 12 | 207 | 9.7 | 9.7 | 0.00 | 0.00 | 0.00 | 91 | 1013.0 |
| 20260505082913 | 12 | 146 | 3.2 | 16.1 | 0.00 | 0.00 | 0.00 | 91 | 1012.9 |
| 20260505082409 | 12 | 180 | 1.6 | 12.9 | 0.00 | 0.00 | 0.00 | 91 | 1012.9 |
| 20260505081906 | 12 | 198 | 9.7 | 17.7 | 0.00 | 0.00 | 0.00 | 91 | 1013.1 |
| 20260505081403 | 12 | 172 | 8.0 | 12.9 | 0.00 | 0.00 | 0.00 | 90 | 1013.0 |
| 20260505080859 | 12 | 160 | 1.6 | 8.0 | 0.00 | 0.00 | 0.00 | 90 | 1013.1 |
| 20260505080355 | 12 | 129 | 4.8 | 11.3 | 0.00 | 0.00 | 0.00 | 90 | 1013.1 |
| 20260505075851 | 12 | 109 | 1.6 | 14.5 | 0.00 | 0.00 | 0.00 | 90 | 1013.0 |
| 20260505075348 | 12 | 172 | 4.8 | 6.4 | 0.00 | 0.00 | 0.00 | 90 | 1013.0 |
| 20260505074845 | 12 | 144 | 4.8 | 12.9 | 0.00 | 0.00 | 0.00 | 90 | 1012.7 |
| 20260505074342 | 12 | 183 | 4.8 | 8.0 | 0.00 | 0.00 | 0.00 | 90 | 1012.8 |
| 20260505073840 | 12 | 129 | 3.2 | 9.7 | 0.00 | 0.00 | 0.00 | 90 | 1012.7 |
| 20260505073338 | 12 | 187 | 3.2 | 14.5 | 0.00 | 0.00 | 0.00 | 90 | 1012.7 |
| 20260505072834 | 12 | 144 | 4.8 | 12.9 | 0.00 | 0.00 | 0.00 | 90 | 1012.7 |
| 20260505072330 | 12 | 141 | 8.0 | 17.7 | 0.00 | 0.00 | 0.00 | 89 | 1012.5 |
| 20260505071826 | 12 | 217 | 11.3 | 14.5 | 0.00 | 0.00 | 0.00 | 89 | 1012.6 |
| 20260505071323 | 12 | 197 | 6.4 | 11.3 | 0.00 | 0.00 | 0.00 | 89 | 1012.5 |
| 20260505070821 | 12 | 180 | 3.2 | 8.0 | 0.00 | 0.00 | 0.00 | 89 | 1012.6 |
| 20260505070318 | 13 | 166 | 3.2 | 12.9 | 0.00 | 0.00 | 0.00 | 89 | 1012.2 |
| 20260505065813 | 13 | 198 | 3.2 | 14.5 | 0.00 | 0.00 | 0.00 | 89 | 1012.4 |
| 20260505065310 | 13 | 147 | 3.2 | 8.0 | 0.00 | 0.00 | 0.00 | 89 | 1012.2 |
| 20260505064807 | 13 | 133 | 4.8 | 16.1 | 0.00 | 0.00 | 0.00 | 89 | 1012.5 |
| 20260505064304 | 13 | 96 | 0.0 | 6.4 | 0.00 | 0.00 | 0.00 | 88 | 1012.2 |
| 20260505063802 | 13 | 211 | 14.5 | 16.1 | 0.00 | 0.00 | 0.00 | 88 | 1012.2 |
| 20260505063258 | 13 | 198 | 11.3 | 14.5 | 0.00 | 0.00 | 0.00 | 88 | 1012.2 |
| 20260505062754 | 13 | 146 | 3.2 | 11.3 | 0.00 | 0.00 | 0.00 | 88 | 1012.1 |
| 20260505062252 | 13 | 180 | 4.8 | 14.5 | 0.00 | 0.00 | 0.00 | 88 | 1012.0 |
| 20260505061749 | 13 | 155 | 3.2 | 9.7 | 0.00 | 0.00 | 0.00 | 88 | 1012.2 |
| 20260505061247 | 13 | 182 | 4.8 | 9.7 | 0.00 | 0.00 | 0.00 | 88 | 1012.1 |
| 20260505060744 | 13 | 198 | 11.3 | 12.9 | 0.00 | 0.00 | 0.00 | 87 | 1011.9 |
| 20260505060241 | 13 | 182 | 4.8 | 16.1 | 0.00 | 0.00 | 0.00 | 87 | 1012.0 |
| 20260505055736 | 13 | 165 | 4.8 | 9.7 | 0.00 | 0.00 | 0.00 | 87 | 1011.8 |
| 20260505055233 | 13 | 132 | 3.2 | 8.0 | 0.00 | 0.00 | 0.00 | 87 | 1011.7 |
| 20260505054730 | 13 | 180 | 4.8 | 9.7 | 0.00 | 0.00 | 0.00 | 87 | 1011.7 |
| 20260505054228 | 13 | 174 | 4.8 | 16.1 | 0.00 | 0.00 | 0.00 | 86 | 1011.7 |
| 20260505053726 | 13 | 180 | 8.0 | 16.1 | 0.00 | 0.00 | 0.00 | 86 | 1011.6 |
| 20260505053222 | 13 | 185 | 8.0 | 11.3 | 0.00 | 0.00 | 0.00 | 86 | 1011.7 |
| 20260505052719 | 13 | 145 | 6.4 | 12.9 | 0.00 | 0.00 | 0.00 | 86 | 1011.5 |
| 20260505052216 | 14 | 186 | 4.8 | 12.9 | 0.00 | 0.00 | 0.00 | 85 | 1011.7 |
| 20260505051713 | 14 | 194 | 11.3 | 16.1 | 0.00 | 0.00 | 0.00 | 85 | 1011.6 |
| 20260505051212 | 14 | 182 | 4.8 | 9.7 | 0.00 | 0.00 | 0.00 | 85 | 1011.6 |
| 20260505050709 | 14 | 142 | 6.4 | 11.3 | 0.00 | 0.00 | 0.00 | 85 | 1011.5 |
| 20260505050207 | 14 | 179 | 6.4 | 16.1 | 0.00 | 0.00 | 0.00 | 84 | 1011.4 |
| 20260505041637 | 15 | 199 | 9.7 | 14.5 | 0.00 | 0.00 | 0.00 | 79 | 1010.7 |
| 20260505041134 | 16 | 201 | 8.0 | 16.1 | 0.00 | 0.00 | 0.00 | 79 | 1010.8 |
| 20260505040631 | 16 | 193 | 11.3 | 14.5 | 0.00 | 0.00 | 0.00 | 78 | 1010.7 |
| 20260505040128 | 16 | 175 | 4.8 | 9.7 | 0.00 | 0.00 | 0.00 | 77 | 1010.4 |
| 20260505035624 | 16 | 213 | 6.4 | 8.0 | 0.00 | 0.00 | 0.00 | 77 | 1010.3 |
| 20260505035121 | 17 | 186 | 6.4 | 6.4 | 0.00 | 0.00 | 0.00 | 76 | 1010.4 |
| 20260505034617 | 17 | 162 | 3.2 | 11.3 | 0.00 | 0.00 | 0.00 | 76 | 1010.3 |
| 20260505034114 | 17 | 192 | 6.4 | 8.0 | 0.00 | 0.00 | 0.00 | 75 | 1010.2 |
| 20260505033611 | 17 | 196 | 3.2 | 6.4 | 0.00 | 0.00 | 0.00 | 74 | 1010.1 |
| 20260505033110 | 17 | 183 | 3.2 | 8.0 | 0.00 | 0.00 | 0.00 | 74 | 1010.1 |
| 20260505032607 | 17 | 172 | 3.2 | 9.7 | 0.00 | 0.00 | 0.00 | 73 | 1009.9 |
| 20260505032103 | 18 | 198 | 8.0 | 9.7 | 0.00 | 0.00 | 0.00 | 73 | 1010.0 |
| 20260505031601 | 18 | 147 | 3.2 | 9.7 | 0.00 | 0.00 | 0.00 | 73 | 1009.9 |
| 20260505031057 | 18 | 195 | 4.8 | 14.5 | 0.00 | 0.00 | 0.00 | 73 | 1009.8 |
| 20260505030554 | 18 | 191 | 4.8 | 12.9 | 0.00 | 0.00 | 0.00 | 73 | 1009.7 |
| 20260505030050 | 18 | 169 | 6.4 | 11.3 | 0.00 | 0.00 | 0.00 | 72 | 1009.8 |
| 20260505025545 | 18 | 189 | 9.7 | 16.1 | 0.00 | 0.00 | 0.00 | 71 | 1009.6 |
| 20260505025045 | 19 | 199 | 11.3 | 14.5 | 0.00 | 0.00 | 0.00 | 68 | 1009.4 |
| 20260505024541 | 20 | 186 | 9.7 | 14.5 | 0.00 | 0.00 | 0.00 | 65 | 1009.4 |
| 20260505024038 | 20 | 190 | 6.4 | 11.3 | 0.00 | 0.00 | 0.00 | 64 | 1009.4 |
| 20260505023535 | 20 | 199 | 6.4 | 12.9 | 0.00 | 0.00 | 0.00 | 64 | 1009.4 |
| 20260505023033 | 21 | 195 | 6.4 | 9.7 | 0.00 | 0.00 | 0.00 | 60 | 1009.2 |
| 20260505022531 | 22 | 200 | 6.4 | 11.3 | 0.00 | 0.00 | 0.00 | 58 | 1009.3 |
| 20260505022027 | 22 | 174 | 4.8 | 8.0 | 0.00 | 0.00 | 0.00 | 58 | 1009.4 |
| 20260505021524 | 22 | 191 | 4.8 | 12.9 | 0.00 | 0.00 | 0.00 | 58 | 1009.2 |
| 20260505021021 | 22 | 169 | 4.8 | 11.3 | 0.00 | 0.00 | 0.00 | 56 | 1009.3 |
| 20260505020520 | 22 | 194 | 6.4 | 11.3 | 0.00 | 0.00 | 0.00 | 57 | 1009.2 |
| 20260505020018 | 22 | 180 | 6.4 | 12.9 | 0.00 | 0.00 | 0.00 | 57 | 1009.3 |
| 20260505015515 | 23 | 228 | 6.4 | 9.7 | 0.00 | 0.00 | 0.00 | 56 | 1009.2 |
| 20260505015012 | 23 | 194 | 3.2 | 11.3 | 0.00 | 0.00 | 0.00 | 56 | 1009.2 |
| 20260505014509 | 22 | 139 | 3.2 | 11.3 | 0.00 | 0.00 | 0.00 | 57 | 1009.2 |
| 20260505014006 | 23 | 200 | 11.3 | 11.3 | 0.00 | 0.00 | 0.00 | 56 | 1009.2 |
| 20260505013503 | 23 | 186 | 6.4 | 12.9 | 0.00 | 0.00 | 0.00 | 56 | 1009.2 |
| 20260505013000 | 23 | 201 | 6.4 | 12.9 | 0.00 | 0.00 | 0.00 | 57 | 1009.1 |
| 20260505012458 | 23 | 172 | 3.2 | 11.3 | 0.00 | 0.00 | 0.00 | 57 | 1009.3 |
| 20260505011955 | 23 | 207 | 8.0 | 14.5 | 0.00 | 0.00 | 0.00 | 58 | 1009.2 |
| 20260505011451 | 23 | 201 | 11.3 | 11.3 | 0.00 | 0.00 | 0.00 | 56 | 1009.3 |
| 20260505010948 | 23 | 188 | 4.8 | 8.0 | 0.00 | 0.00 | 0.00 | 56 | 1009.2 |
| 20260505010443 | 23 | 182 | 6.4 | 14.5 | 0.00 | 0.00 | 0.00 | 57 | 1009.3 |
| 20260505005940 | 23 | 201 | 12.9 | 14.5 | 0.00 | 0.00 | 0.00 | 57 | 1009.5 |
| 20260505005436 | 23 | 168 | 6.4 | 9.7 | 0.00 | 0.00 | 0.00 | 55 | 1009.2 |
| 20260505004934 | 23 | 197 | 6.4 | 9.7 | 0.00 | 0.00 | 0.00 | 56 | 1009.4 |
| 20260505004431 | 23 | 228 | 8.0 | 12.9 | 0.00 | 0.00 | 0.00 | 55 | 1009.4 |
| 20260505003928 | 23 | 197 | 9.7 | 12.9 | 0.00 | 0.00 | 0.00 | 56 | 1009.4 |
| 20260505003425 | 23 | 192 | 6.4 | 14.5 | 0.00 | 0.00 | 0.00 | 55 | 1009.6 |
| 20260505002921 | 25 | 209 | 4.8 | 8.0 | 0.00 | 0.00 | 0.00 | 52 | 1009.3 |
| 20260505002418 | 23 | 225 | 4.8 | 11.3 | 0.00 | 0.00 | 0.00 | 54 | 1009.5 |
| 20260505001916 | 23 | 197 | 9.7 | 14.5 | 0.00 | 0.00 | 0.00 | 54 | 1009.6 |
| 20260505001413 | 23 | 198 | 9.7 | 12.9 | 0.00 | 0.00 | 0.00 | 54 | 1009.4 |
| 20260505000910 | 23 | 183 | 8.0 | 12.9 | 0.00 | 0.00 | 0.00 | 53 | 1009.4 |
| 20260505000408 | 23 | 197 | 11.3 | 11.3 | 0.00 | 0.00 | 0.00 | 52 | 1009.6 |
| 20260504235904 | 24 | 215 | 6.4 | 9.7 | 0.00 | 0.00 | 0.00 | 51 | 1009.3 |
| 20260504235402 | 23 | 208 | 9.7 | 9.7 | 0.00 | 0.00 | 0.00 | 53 | 1009.3 |
| 20260504234857 | 23 | 187 | 8.0 | 11.3 | 0.00 | 0.00 | 0.00 | 54 | 1009.5 |
| 20260504234355 | 24 | 198 | 6.4 | 8.0 | 0.00 | 0.00 | 0.00 | 52 | 1009.6 |
| 20260504233852 | 23 | 180 | 4.8 | 11.3 | 0.00 | 0.00 | 0.00 | 54 | 1009.5 |
| 20260504233348 | 25 | 185 | 3.2 | 6.4 | 0.00 | 0.00 | 0.00 | 52 | 1009.4 |
| 20260504232844 | 22 | 213 | 0.0 | 3.2 | 0.00 | 0.00 | 0.00 | 59 | 1009.4 |
| 20260504232342 | 23 | 194 | 4.8 | 4.8 | 0.00 | 0.00 | 0.00 | 54 | 1009.5 |
| 20260504231838 | 23 | 180 | 3.2 | 4.8 | 0.00 | 0.00 | 0.00 | 56 | 1009.4 |
| 20260504231334 | 21 | 191 | 0.0 | 6.4 | 0.00 | 0.00 | 0.00 | 62 | 1009.4 |
| 20260504230831 | 20 | 165 | 1.6 | 9.7 | 0.00 | 0.00 | 0.00 | 67 | 1009.6 |
| 20260504230329 | 20 | 219 | 3.2 | 8.0 | 0.00 | 0.00 | 0.00 | 64 | 1009.7 |
| 20260504225828 | 19 | 212 | 3.2 | 9.7 | 0.00 | 0.00 | 0.00 | 68 | 1009.5 |
| 20260504225323 | 21 | 213 | 6.4 | 9.7 | 0.00 | 0.00 | 0.00 | 63 | 1009.7 |
| 20260504224821 | 23 | 197 | 4.8 | 11.3 | 0.00 | 0.00 | 0.00 | 53 | 1009.9 |
| 20260504224318 | 24 | 218 | 6.4 | 9.7 | 0.00 | 0.00 | 0.00 | 51 | 1009.9 |
| 20260504223815 | 25 | 210 | 6.4 | 6.4 | 0.00 | 0.00 | 0.00 | 49 | 1010.0 |
| 20260504223310 | 24 | 210 | 0.0 | 4.8 | 0.00 | 0.00 | 0.00 | 54 | 1010.2 |
| 20260504222807 | 23 | 195 | 6.4 | 6.4 | 0.00 | 0.00 | 0.00 | 55 | 1010.2 |
| 20260504222305 | 22 | 201 | 4.8 | 6.4 | 0.00 | 0.00 | 0.00 | 56 | 1010.2 |
| 20260504221802 | 22 | 198 | 6.4 | 6.4 | 0.00 | 0.00 | 0.00 | 60 | 1010.2 |
| 20260504221259 | 22 | 203 | 4.8 | 6.4 | 0.00 | 0.00 | 0.00 | 58 | 1010.2 |
| 20260504220755 | 22 | 205 | 4.8 | 6.4 | 0.00 | 0.00 | 0.00 | 59 | 1010.2 |
| 20260504220252 | 22 | 202 | 6.4 | 6.4 | 0.00 | 0.00 | 0.00 | 61 | 1010.2 |
| 20260504215749 | 22 | 206 | 4.8 | 6.4 | 0.00 | 0.00 | 0.00 | 61 | 1010.3 |
| 20260504215246 | 21 | 192 | 6.4 | 8.0 | 0.00 | 0.00 | 0.00 | 62 | 1010.4 |
| 20260504214742 | 21 | 199 | 6.4 | 9.7 | 0.00 | 0.00 | 0.00 | 63 | 1010.5 |
| 20260504214238 | 21 | 198 | 6.4 | 9.7 | 0.00 | 0.00 | 0.00 | 64 | 1010.5 |
| 20260504213735 | 20 | 203 | 8.0 | 9.7 | 0.00 | 0.00 | 0.00 | 66 | 1010.5 |
| 20260504213232 | 21 | 223 | 6.4 | 9.7 | 0.00 | 0.00 | 0.00 | 64 | 1010.6 |
| 20260504212729 | 21 | 201 | 4.8 | 9.7 | 0.00 | 0.00 | 0.00 | 64 | 1010.7 |
| 20260504212225 | 21 | 216 | 4.8 | 8.0 | 0.00 | 0.00 | 0.00 | 64 | 1010.6 |
| 20260504211723 | 21 | 206 | 6.4 | 6.4 | 0.00 | 0.00 | 0.00 | 61 | 1010.6 |
| 20260504211219 | 21 | 194 | 8.0 | 9.7 | 0.00 | 0.00 | 0.00 | 63 | 1010.7 |
| 20260504210717 | 21 | 198 | 8.0 | 11.3 | 0.00 | 0.00 | 0.00 | 64 | 1010.6 |
| 20260504210214 | 21 | 202 | 6.4 | 11.3 | 0.00 | 0.00 | 0.00 | 62 | 1010.8 |
| 20260504205710 | 21 | 199 | 9.7 | 11.3 | 0.00 | 0.00 | 0.00 | 64 | 1010.7 |
| 20260504205208 | 21 | 191 | 8.0 | 11.3 | 0.00 | 0.00 | 0.00 | 65 | 1010.8 |
| 20260504204706 | 20 | 197 | 9.7 | 11.3 | 0.00 | 0.00 | 0.00 | 66 | 1010.6 |
| 20260504204205 | 20 | 200 | 9.7 | 12.9 | 0.00 | 0.00 | 0.00 | 65 | 1010.9 |
| 20260504203703 | 20 | 197 | 11.3 | 12.9 | 0.00 | 0.00 | 0.00 | 66 | 1011.0 |
| 20260504203201 | 20 | 199 | 9.7 | 9.7 | 0.00 | 0.00 | 0.00 | 68 | 1011.0 |
| 20260504202700 | 19 | 198 | 8.0 | 12.9 | 0.00 | 0.00 | 0.00 | 69 | 1010.8 |
| 20260504202158 | 19 | 203 | 8.0 | 11.3 | 0.00 | 0.00 | 0.00 | 69 | 1010.9 |
| 20260504201654 | 19 | 202 | 9.7 | 11.3 | 0.00 | 0.00 | 0.00 | 69 | 1010.8 |
| 20260504201152 | 18 | 198 | 6.4 | 11.3 | 0.00 | 0.00 | 0.00 | 71 | 1010.8 |
| 20260504200649 | 18 | 202 | 9.7 | 12.9 | 0.00 | 0.00 | 0.00 | 71 | 1010.8 |
| 20260504200146 | 18 | 201 | 11.3 | 14.5 | 0.00 | 0.00 | 0.00 | 72 | 1010.8 |
| 20260504195642 | 18 | 199 | 9.7 | 11.3 | 0.00 | 0.00 | 0.00 | 72 | 1010.9 |
| 20260504195138 | 18 | 196 | 12.9 | 17.7 | 0.00 | 0.00 | 0.00 | 73 | 1010.9 |
| 20260504194635 | 18 | 201 | 12.9 | 12.9 | 0.00 | 0.00 | 0.00 | 73 | 1011.0 |
| 20260504194131 | 18 | 192 | 9.7 | 14.5 | 0.00 | 0.00 | 0.00 | 74 | 1010.9 |
| 20260504193627 | 18 | 200 | 12.9 | 14.5 | 0.00 | 0.00 | 0.00 | 73 | 1011.0 |
| 20260504193126 | 18 | 199 | 12.9 | 12.9 | 0.00 | 0.00 | 0.00 | 73 | 1011.0 |
| 20260504192623 | 18 | 191 | 6.4 | 11.3 | 0.00 | 0.00 | 0.00 | 73 | 1011.1 |
| 20260504192121 | 18 | 202 | 9.7 | 14.5 | 0.00 | 0.00 | 0.00 | 73 | 1011.1 |
| 20260504191620 | 17 | 202 | 9.7 | 9.7 | 0.00 | 0.00 | 0.00 | 74 | 1011.1 |
| 20260504191115 | 18 | 202 | 11.3 | 12.9 | 0.00 | 0.00 | 0.00 | 73 | 1011.2 |
| 20260504190612 | 18 | 203 | 9.7 | 11.3 | 0.00 | 0.00 | 0.00 | 72 | 1011.2 |
| 20260504190108 | 17 | 231 | 9.7 | 16.1 | 0.00 | 0.00 | 0.00 | 77 | 1011.3 |
| 20260504185605 | 16 | 195 | 11.3 | 14.5 | 0.00 | 0.00 | 0.00 | 79 | 1011.3 |
| 20260504185101 | 16 | 194 | 11.3 | 16.1 | 0.00 | 0.00 | 0.00 | 80 | 1011.2 |
| 20260504184557 | 15 | 197 | 8.0 | 14.5 | 0.00 | 0.00 | 0.00 | 80 | 1011.2 |
| 20260504184052 | 15 | 205 | 11.3 | 11.3 | 0.00 | 0.00 | 0.00 | 80 | 1011.4 |
| 20260504183550 | 16 | 209 | 9.7 | 14.5 | 0.00 | 0.00 | 0.00 | 79 | 1011.3 |
| 20260504183048 | 16 | 199 | 11.3 | 14.5 | 0.00 | 0.00 | 0.00 | 79 | 1011.1 |
| 20260504182544 | 15 | 199 | 9.7 | 14.5 | 0.00 | 0.00 | 0.00 | 79 | 1011.2 |
| 20260504182042 | 16 | 206 | 11.3 | 16.1 | 0.00 | 0.00 | 0.00 | 78 | 1011.2 |
| 20260504181539 | 16 | 198 | 11.3 | 14.5 | 0.00 | 0.00 | 0.00 | 77 | 1011.3 |
| 20260504181037 | 16 | 194 | 6.4 | 11.3 | 0.00 | 0.00 | 0.00 | 76 | 1011.5 |
| 20260504180536 | 16 | 184 | 4.8 | 8.0 | 0.00 | 0.00 | 0.00 | 76 | 1011.4 |
| 20260504180034 | 16 | 294 | 0.0 | 1.6 | 0.00 | 0.00 | 0.00 | 78 | 1011.4 |
| 20260504175531 | 16 | 264 | 0.0 | 3.2 | 0.00 | 0.00 | 0.00 | 79 | 1011.3 |
| 20260504175028 | 16 | 11 | 0.0 | 3.2 | 0.00 | 0.00 | 0.00 | 80 | 1011.5 |
| 20260504174526 | 15 | 346 | 1.6 | 4.8 | 0.00 | 0.00 | 0.00 | 80 | 1011.4 |
| 20260504174022 | 15 | 74 | 0.0 | 3.2 | 0.00 | 0.00 | 0.00 | 82 | 1011.4 |
| 20260504173519 | 15 | 32 | 3.2 | 3.2 | 0.00 | 0.00 | 0.00 | 82 | 1011.4 |
| 20260504173017 | 15 | 343 | 0.0 | 3.2 | 0.00 | 0.00 | 0.00 | 82 | 1011.2 |
| 20260504172513 | 15 | 345 | 1.6 | 3.2 | 0.00 | 0.00 | 0.00 | 84 | 1011.3 |
| 20260504172009 | 15 | 33 | 3.2 | 3.2 | 0.00 | 0.00 | 0.00 | 85 | 1011.3 |
| 20260504171506 | 14 | 63 | 0.0 | 3.2 | 0.00 | 0.00 | 0.00 | 85 | 1011.3 |
| 20260504171003 | 14 | 352 | 3.2 | 3.2 | 0.00 | 0.00 | 0.00 | 85 | 1011.2 |
| 20260504170459 | 14 | 19 | 3.2 | 3.2 | 0.00 | 0.00 | 0.00 | 86 | 1011.3 |
| 20260504160419 | 12 | 114 | 0.0 | 1.6 | 0.00 | 0.00 | 0.00 | 88 | 1011.0 |
| 20260504150843 | 11 | 20 | 0.0 | 3.2 | 0.00 | 0.00 | 0.00 | 90 | 1010.6 |
| 20260504150339 | 11 | 8 | 0.0 | 3.2 | 0.00 | 0.00 | 0.00 | 90 | 1010.9 |
| 20260504141309 | 11 | 66 | 0.0 | 1.6 | 0.00 | 0.00 | 0.00 | 89 | 1010.5 |
| 20260504140806 | 11 | 15 | 0.0 | 1.6 | 0.00 | 0.00 | 0.00 | 89 | 1010.4 |
| 20260504140302 | 11 | 74 | 0.0 | 1.6 | 0.00 | 0.00 | 0.00 | 88 | 1010.4 |
| 20260504130731 | 11 | 77 | 0.0 | 3.2 | 0.00 | 0.00 | 0.00 | 87 | 1010.1 |
| 20260504130226 | 11 | 75 | 0.0 | 3.2 | 0.00 | 0.00 | 0.00 | 86 | 1009.9 |